Afton Municipal Airport, WY

10:38 AM MDT on May 26, 2017 (GMT -0600)
Afton Municipal

Weather History for KAFO - December, 2013

Change the Weather History Date:

Wednesday, December 4, 2013

  Actual Average Record
Temperature  
Mean Temperature 6 °F -  
Max Temperature 12 °F 33 °F 39 °F (2014)
Min Temperature -2 °F 8 °F -2 °F (2013)
Degree Days  
Heating Degree Days 59    
Moisture  
Dew Point 0 °F    
Average Humidity 76    
Maximum Humidity 85    
Minimum Humidity 57    
Precipitation  
Precipitation 0.00 in - - ()
Sea Level Pressure  
Sea Level Pressure 29.78 in    
Wind  
Wind Speed 5 mph (NW)    
Max Wind Speed 9 mph    
Max Gust Speed -    
Visibility 8 miles    
Events Snow    
Averages and records for this station are not official NWS values.
T = Trace of Precipitation, MM = Missing Value Source: NWS Daily Summary

Daily Weather History Graph

Daily Weather History Graph

Search for Another Location

Airport or City:

Trip Planner

Search our weather history database for the weather conditions in past years. The results will help you decide how hot, cold, wet, or windy it might be!

Date:

Astronomy

Dec. 04, 2013 Rise Set
Actual Time 7:37 AM MST 4:50 PM MST
Civil Twilight 7:06 AM MST 5:22 PM MST
Nautical Twilight 6:30 AM MST 5:57 PM MST
Astronomical Twilight 5:56 AM MST 6:31 PM MST
Moon 9:08 AM MST (12/4) 7:05 PM MST (12/4)
Length of Visible Light 10h 15m
Length of Day
9h 12m
Waxing Crescent, 5% of the Moon is Illuminated
Dec 4
Waxing Crescent
Dec 9
First Quarter
Dec 17
Full
Dec 25
Last Quarter
Jan 1
New

Hourly Weather History & Observations

Time (MST) Temp. Windchill Dew Point Humidity Pressure Visibility Wind Dir Wind Speed Gust Speed Precip Events Conditions
12:15 AM 8.6 °F -4.7 °F 3.2 °F 79% 29.66 in 10.0 mi NNW 9.2 mph - N/A   Mostly Cloudy
12:35 AM 8.6 °F -2.6 °F 3.2 °F 79% 29.66 in 10.0 mi NNW 6.9 mph - N/A   Overcast
12:55 AM 8.6 °F -2.6 °F 3.2 °F 79% 29.66 in 10.0 mi NNW 6.9 mph - N/A   Mostly Cloudy
1:15 AM 6.8 °F -4.8 °F 3.2 °F 85% 29.66 in 10.0 mi NNW 6.9 mph - N/A   Mostly Cloudy
1:35 AM 6.8 °F -4.8 °F 1.4 °F 79% 29.66 in 10.0 mi NNW 6.9 mph - N/A   Mostly Cloudy
1:55 AM 6.8 °F -2.0 °F 1.4 °F 79% 29.66 in 10.0 mi NNW 4.6 mph - N/A   Scattered Clouds
2:15 AM 6.8 °F -3.5 °F 1.4 °F 79% 29.67 in 10.0 mi North 5.8 mph - N/A   Scattered Clouds
2:35 AM 6.8 °F -2.0 °F 1.4 °F 79% 29.68 in 10.0 mi NW 4.6 mph - N/A   Mostly Cloudy
2:55 AM 6.8 °F -0.1 °F 1.4 °F 79% 29.68 in 10.0 mi NW 3.5 mph - N/A   Mostly Cloudy
3:15 AM 5.0 °F -2.1 °F -0.4 °F 78% 29.68 in 10.0 mi NNW 3.5 mph - N/A   Scattered Clouds
3:35 AM 5.0 °F -2.1 °F 1.4 °F 85% 29.67 in 10.0 mi NW 3.5 mph - N/A   Scattered Clouds
3:55 AM 5.0 °F -5.6 °F 1.4 °F 85% 29.66 in 10.0 mi NNW 5.8 mph - N/A   Mostly Cloudy
4:15 AM 5.0 °F -5.6 °F 1.4 °F 85% 29.67 in 10.0 mi NW 5.8 mph - N/A   Mostly Cloudy
4:35 AM 5.0 °F -6.9 °F 1.4 °F 85% 29.68 in 10.0 mi North 6.9 mph - N/A   Mostly Cloudy
4:55 AM 5.0 °F -4.1 °F 1.4 °F 85% 29.69 in 10.0 mi NW 4.6 mph - N/A   Scattered Clouds
5:15 AM 5.0 °F - 1.4 °F 85% 29.69 in 7.0 mi Calm Calm - N/A Snow Light Snow
5:35 AM 5.0 °F -4.1 °F -0.4 °F 78% 29.70 in 5.0 mi NNE 4.6 mph - N/A   Haze
5:55 AM 5.0 °F -2.1 °F -0.4 °F 78% 29.71 in 5.0 mi North 3.5 mph - N/A   Haze
6:15 AM 5.0 °F - -0.4 °F 78% 29.71 in 4.0 mi Calm Calm - N/A Snow Light Snow
6:35 AM 5.0 °F -2.1 °F 1.4 °F 85% 29.72 in 4.0 mi NNW 3.5 mph - N/A Snow Light Snow
6:55 AM 5.0 °F -2.1 °F 1.4 °F 85% 29.71 in 5.0 mi NW 3.5 mph - N/A   Overcast
7:15 AM 5.0 °F -4.1 °F 1.4 °F 85% 29.71 in 4.0 mi WNW 4.6 mph - N/A Snow Light Snow
7:35 AM 5.0 °F -4.1 °F 1.4 °F 85% 29.72 in 7.0 mi WNW 4.6 mph - N/A Snow Light Snow
7:55 AM 5.0 °F -5.6 °F -0.4 °F 78% 29.72 in 4.0 mi NW 5.8 mph - N/A Snow Light Snow
8:15 AM 5.0 °F -6.9 °F -0.4 °F 78% 29.73 in 3.0 mi WNW 6.9 mph - N/A Snow Light Snow
8:35 AM 5.0 °F -5.6 °F -0.4 °F 78% 29.74 in 2.0 mi NW 5.8 mph - N/A Snow Light Snow
8:55 AM 5.0 °F -5.6 °F -0.4 °F 78% 29.75 in 1.8 mi WNW 5.8 mph - N/A Snow Light Snow
9:15 AM 5.0 °F -4.1 °F -0.4 °F 78% 29.76 in 1.8 mi NW 4.6 mph - N/A Snow Light Snow
9:35 AM 5.0 °F -4.1 °F -0.4 °F 78% 29.76 in 2.5 mi NW 4.6 mph - N/A Snow Light Snow
9:55 AM 5.0 °F -2.1 °F -0.4 °F 78% 29.76 in 2.0 mi NW 3.5 mph - N/A   Haze
10:15 AM 5.0 °F -5.6 °F -0.4 °F 78% 29.77 in 4.0 mi NW 5.8 mph - N/A   Haze
10:35 AM 6.8 °F -2.0 °F -0.4 °F 72% 29.77 in 4.0 mi NNW 4.6 mph - N/A Snow Light Snow
10:55 AM 6.8 °F -3.5 °F -0.4 °F 72% 29.78 in 4.0 mi NW 5.8 mph - N/A   Haze
11:15 AM 8.6 °F - 1.4 °F 73% 29.78 in 4.0 mi Calm Calm - N/A   Haze
11:35 AM 8.6 °F -1.3 °F 1.4 °F 73% 29.78 in 4.0 mi NW 5.8 mph - N/A   Haze
11:55 AM 8.6 °F - 1.4 °F 73% 29.77 in 5.0 mi Calm Calm - N/A   Haze
12:15 PM 8.6 °F - 1.4 °F 73% 29.77 in 7.0 mi Calm Calm - N/A   Scattered Clouds
12:35 PM 10.4 °F 4.0 °F 1.4 °F 67% 29.77 in 10.0 mi NNW 3.5 mph - N/A   Clear
12:55 PM 10.4 °F - 1.4 °F 67% 29.77 in 10.0 mi Calm Calm - N/A   Scattered Clouds
1:15 PM 10.4 °F 4.0 °F 1.4 °F 67% 29.77 in 10.0 mi WNW 3.5 mph - N/A   Scattered Clouds
1:35 PM 10.4 °F 2.2 °F 1.4 °F 67% 29.78 in 10.0 mi North 4.6 mph - N/A   Scattered Clouds
1:55 PM 10.4 °F - -0.4 °F 62% 29.78 in 10.0 mi Calm Calm - N/A   Clear
2:15 PM 12.2 °F 2.9 °F 1.4 °F 62% 29.79 in 10.0 mi NW 5.8 mph - N/A   Clear
2:35 PM 10.4 °F 4.0 °F -0.4 °F 62% 29.79 in 10.0 mi NW 3.5 mph - N/A   Clear
2:55 PM 10.4 °F 4.0 °F -0.4 °F 62% 29.79 in 10.0 mi NNW 3.5 mph - N/A   Clear
3:15 PM 10.4 °F 4.0 °F -0.4 °F 62% 29.80 in 10.0 mi NW 3.5 mph - N/A   Clear
3:35 PM 10.4 °F - -2.2 °F 57% 29.81 in 10.0 mi Calm Calm - N/A   Clear
3:55 PM 10.4 °F - -2.2 °F 57% 29.82 in 10.0 mi Calm Calm - N/A   Clear
4:15 PM 8.6 °F 2.0 °F -0.4 °F 67% 29.83 in 10.0 mi WNW 3.5 mph - N/A   Clear
4:35 PM 6.8 °F -2.0 °F 1.4 °F 79% 29.84 in 10.0 mi West 4.6 mph - N/A   Scattered Clouds
4:55 PM 8.6 °F -1.3 °F 1.4 °F 73% 29.85 in 10.0 mi NW 5.8 mph - N/A   Overcast
5:15 PM 8.6 °F 0.1 °F 1.4 °F 73% 29.85 in 10.0 mi NW 4.6 mph - N/A   Mostly Cloudy
5:35 PM 6.8 °F -4.8 °F -0.4 °F 72% 29.86 in 10.0 mi North 6.9 mph - N/A   Mostly Cloudy
5:55 PM 6.8 °F -5.9 °F -0.4 °F 72% 29.86 in 7.0 mi North 8.1 mph - N/A   Mostly Cloudy
6:15 PM 5.0 °F -5.6 °F -0.4 °F 78% 29.87 in 7.0 mi North 5.8 mph - N/A   Overcast
6:35 PM 5.0 °F -5.6 °F -0.4 °F 78% 29.88 in 7.0 mi North 5.8 mph - N/A   Overcast
6:55 PM 3.2 °F - -0.4 °F 85% 29.88 in 10.0 mi Calm Calm - N/A   Scattered Clouds
7:15 PM 3.2 °F - -0.4 °F 85% 29.89 in 7.0 mi Calm Calm - N/A   Mostly Cloudy
7:35 PM 3.2 °F -4.2 °F -2.2 °F 78% 29.90 in 10.0 mi ENE 3.5 mph - N/A   Overcast
7:55 PM 3.2 °F - -4.0 °F 72% 29.91 in 7.0 mi Calm Calm - N/A   Overcast
8:15 PM 5.0 °F - -2.2 °F 72% 29.91 in 10.0 mi Calm Calm - N/A   Mostly Cloudy
8:35 PM 5.0 °F -2.1 °F -0.4 °F 78% 29.91 in 7.0 mi SW 3.5 mph - N/A   Overcast
8:55 PM 5.0 °F -4.1 °F -0.4 °F 78% 29.91 in 3.0 mi SW 4.6 mph - N/A   Haze
9:15 PM 5.0 °F -4.1 °F -0.4 °F 78% 29.91 in 4.0 mi SSW 4.6 mph - N/A   Haze
9:35 PM 3.2 °F -4.2 °F -4.0 °F 72% 29.92 in 5.0 mi South 3.5 mph - N/A   Haze
9:55 PM 1.4 °F -8.3 °F -4.0 °F 78% 29.92 in 10.0 mi SSW 4.6 mph - N/A   Scattered Clouds
10:15 PM -0.4 °F -13.4 °F -5.8 °F 78% 29.93 in 10.0 mi South 6.9 mph - N/A   Scattered Clouds
10:35 PM -0.4 °F -8.3 °F -5.8 °F 78% 29.93 in 10.0 mi South 3.5 mph - N/A   Scattered Clouds
10:55 PM -0.4 °F -8.3 °F -5.8 °F 78% 29.93 in 5.0 mi SSW 3.5 mph - N/A   Haze
11:15 PM -0.4 °F -8.3 °F -5.8 °F 78% 29.93 in 10.0 mi SSW 3.5 mph - N/A   Mostly Cloudy
11:35 PM -0.4 °F -8.3 °F -7.6 °F 72% 29.94 in 7.0 mi South 3.5 mph - N/A   Mostly Cloudy
11:55 PM -2.2 °F -12.5 °F -7.6 °F 78% 29.94 in 10.0 mi South 4.6 mph - N/A   Scattered Clouds